Tracking 32954 objects as of 19-Jan-2026
HD Live streaming from Space Station
objects crossing your sky now

DELTA 1 DEB (YO)

Track DELTA 1 DEB (YO) now!
10-day predictions


NORAD ID: 228
Int'l Code: 1962-002C
Perigee: 443.2 km
Apogee: 450.4 km
Inclination: 48.4 °
Period: 93.4 minutes
Semi major axis: 6817 km
RCS: 0.049 m2 (small)
Launch date: February 8, 1962
Source: United States (US)
Launch site: AIR FORCE EASTERN TEST RANGE (AFETR)

Note: This is SATELLITE DEBRIS
Your satellite tracking list
Your tracking list is empty




NASA's NSSDC Master Catalog

Two Line Element Set (TLE):
1 00228U 62002C   26018.06689845  .00026206  00000-0  60631-3 0  9990
2 00228  48.4323  29.8421 0005316 127.6746 232.4678 15.42184375419851
Source of the keplerian elements: AFSPC